Location: Newark
(43.9494°N, 6.8108°E)
Time: 19:18:43
(UTC+00:00)

A-11 Canister half - Pass Details

Date: 30 October 2019
Orbit: 1514 x 1686 km, 47.2° (Epoch: 13 November)

Event Time Altitude Azimuth Distance (km) Brightness Sun altitude
Rises 02:03:12 0° 276° (W) 4,911 - -43.3°
Reaches altitude 10° 02:06:25 10° 279° (W) 3,907 - -42.8°
Maximum altitude 02:16:26 74° 4° (N) 1,672 - -41.2°
Exits shadow 02:17:27 69° 46° (NE) 1,705 9.1 -41.0°
Drops below altitude 10° 02:26:05 10° 90° (E) 3,771 11.6 -39.6°
Sets 02:29:07 0° 93° (E) 4,733 12.3 -39.1°
